St. Paul Lake Elmo, MN

8:09 PM CST on November 11, 2019 (GMT -0600)
St. Paul Lake Elmo

Weather History for K21D - September, 2019

Change the Weather History Date:

Friday, September 27, 2019

  Actual Average (WUND) Record (WUND)
Temperature  
Mean Temperature 56 °F -  
Max Temperature 62 °F - - (-1)
Min Temperature 51 °F - - (-1)
Degree Days  
Heating Degree Days 8    
Growing Degree Days 6 (Base 50)    
Moisture  
Dew Point 51 °F    
Average Humidity 76    
Maximum Humidity 88    
Minimum Humidity 55    
Precipitation  
Precipitation 0.00 in - - ()
Sea Level Pressure  
Sea Level Pressure 29.71 in    
Wind  
Wind Speed 8 mph (WNW)    
Max Wind Speed 15 mph    
Max Gust Speed 23 mph    
Visibility 10 miles    
Events      
Averages and records for this station are not official NWS values.
T = Trace of Precipitation, MM = Missing Value Source: NWS Daily Summary

Daily Weather History Graph

Daily Weather History Graph

Search for Another Location

Airport or City:

Astronomy

Sep. 27, 2019 Rise Set
Actual Time 7:04 AM CDT 6:59 PM CDT
Civil Twilight 6:35 AM CDT 7:28 PM CDT
Nautical Twilight 6:00 AM CDT 8:03 PM CDT
Astronomical Twilight 5:25 AM CDT 8:37 PM CDT
Moon 5:18 AM CDT (9/27) 6:56 PM CDT (9/27)
Length of Visible Light 12h 53m
Length of Day
11h 55m
Waning Crescent, 2% of the Moon is Illuminated
Sep 27
Waning Crescent
Sep 28
New
Oct 5
First Quarter
Oct 13
Full
Oct 21
Last Quarter

Hourly Weather History & Observations

Time (CDT) Temp. Dew Point Humidity Pressure Visibility Wind Dir Wind Speed Gust Speed Precip Events Conditions
12:15 AM 62.6 °F 46.4 °F 55% 29.64 in 10.0 mi South 15.0 mph 21.9 mph N/A   Clear
12:16 AM 62.6 °F 46.4 °F 55% 29.64 in 10.0 mi South 13.8 mph 21.9 mph N/A   Clear
12:35 AM 62.6 °F 46.4 °F 55% 29.62 in 10.0 mi South 15.0 mph - N/A   Clear
12:40 AM 62.6 °F 46.4 °F 55% 29.62 in 10.0 mi South 12.7 mph 23.0 mph N/A   Clear
12:57 AM 62.6 °F 46.4 °F 55% 29.63 in 10.0 mi South 11.5 mph 19.6 mph N/A   Clear
1:16 AM 60.8 °F 48.2 °F 63% 29.62 in 10.0 mi South 13.8 mph - N/A   Clear
1:35 AM 60.8 °F 48.2 °F 63% 29.61 in 10.0 mi South 12.7 mph 20.7 mph N/A   Clear
1:36 AM 60.8 °F 48.2 °F 63% 29.61 in 10.0 mi South 13.8 mph - N/A   Clear
2:18 AM 60.8 °F 50.0 °F 68% 29.60 in 10.0 mi South 10.4 mph - N/A   Clear
2:36 AM 60.8 °F 50.0 °F 68% 29.59 in 10.0 mi South 9.2 mph - N/A   Scattered Clouds
2:56 AM 60.8 °F 50.0 °F 68% 29.59 in 10.0 mi South 8.1 mph - N/A   Mostly Cloudy
3:15 AM 60.8 °F 50.0 °F 68% 29.58 in 10.0 mi South 9.2 mph - N/A   Overcast
3:16 AM 60.8 °F 50.0 °F 68% 29.58 in 10.0 mi South 9.2 mph - N/A   Overcast
3:35 AM 60.8 °F 50.0 °F 68% 29.57 in 10.0 mi South 9.2 mph - N/A   Mostly Cloudy
3:40 AM 60.8 °F 50.0 °F 68% 29.56 in 10.0 mi South 9.2 mph - N/A   Scattered Clouds
3:58 AM 60.8 °F 50.0 °F 68% 29.56 in 10.0 mi South 9.2 mph - N/A   Scattered Clouds
4:16 AM 59.0 °F 50.0 °F 72% 29.58 in 10.0 mi South 5.8 mph - N/A   Mostly Cloudy
4:35 AM 59.0 °F 51.8 °F 77% 29.59 in 10.0 mi Calm Calm - N/A   Overcast
4:36 AM 59.0 °F 51.8 °F 77% 29.59 in 10.0 mi South 3.5 mph - N/A   Overcast
4:55 AM 59.0 °F 51.8 °F 77% 29.59 in 10.0 mi SSE 3.5 mph - N/A   Mostly Cloudy
5:18 AM 59.0 °F 51.8 °F 77% 29.57 in 10.0 mi South 4.6 mph - N/A   Mostly Cloudy
5:36 AM 59.0 °F 51.8 °F 77% 29.59 in 10.0 mi SSW 4.6 mph - N/A   Scattered Clouds
5:56 AM 59.0 °F 51.8 °F 77% 29.60 in 10.0 mi SW 4.6 mph - N/A   Mostly Cloudy
6:15 AM 59.0 °F 51.8 °F 77% 29.60 in 10.0 mi SSW 4.6 mph - N/A   Overcast
6:16 AM 59.0 °F 53.6 °F 82% 29.60 in 10.0 mi SSW 4.6 mph - N/A   Mostly Cloudy
6:40 AM 59.0 °F 53.6 °F 82% 29.59 in 10.0 mi SW 3.5 mph - N/A   Overcast
6:57 AM 59.0 °F 53.6 °F 82% 29.59 in 10.0 mi Calm Calm - N/A   Overcast
7:16 AM 59.0 °F 53.6 °F 82% 29.60 in 10.0 mi Calm Calm - N/A   Overcast
7:35 AM 60.8 °F 53.6 °F 77% 29.61 in 10.0 mi WSW 4.6 mph - N/A   Overcast
7:36 AM 60.8 °F 53.6 °F 77% 29.61 in 10.0 mi WSW 4.6 mph - N/A   Overcast
7:55 AM 60.8 °F 53.6 °F 77% 29.61 in 10.0 mi WSW 4.6 mph - N/A   Overcast
7:56 AM 60.8 °F 53.6 °F 77% 29.61 in 10.0 mi WSW 4.6 mph - N/A   Overcast
8:18 AM 60.8 °F 53.6 °F 77% 29.62 in 10.0 mi Calm Calm - N/A   Overcast
8:37 AM 60.8 °F 53.6 °F 77% 29.61 in 10.0 mi WNW 3.5 mph - N/A   Overcast
8:56 AM 60.8 °F 53.6 °F 77% 29.61 in 10.0 mi Calm Calm - N/A   Overcast
9:15 AM 60.8 °F 53.6 °F 77% 29.62 in 10.0 mi NW 3.5 mph - N/A   Overcast
9:35 AM 60.8 °F 53.6 °F 77% 29.62 in 10.0 mi Calm Calm - N/A   Overcast
9:40 AM 60.8 °F 53.6 °F 77% 29.62 in 10.0 mi Calm Calm - N/A   Overcast
9:57 AM 60.8 °F 55.4 °F 82% 29.62 in 10.0 mi Calm Calm - N/A   Overcast
10:16 AM 60.8 °F 55.4 °F 82% 29.64 in 10.0 mi NW 6.9 mph - N/A   Overcast
10:35 AM 60.8 °F 53.6 °F 77% 29.64 in 10.0 mi NNW 9.2 mph - N/A   Overcast
10:36 AM 60.8 °F 53.6 °F 77% 29.64 in 10.0 mi NNW 9.2 mph - N/A   Overcast
12:40 PM 62.6 °F 53.6 °F 72% 29.68 in 10.0 mi WNW 6.9 mph - N/A   Scattered Clouds
12:57 PM 62.6 °F 53.6 °F 72% 29.68 in 10.0 mi NNW 6.9 mph - N/A   Scattered Clouds
1:16 PM 60.8 °F 53.6 °F 77% 29.71 in 10.0 mi NW 9.2 mph - N/A   Scattered Clouds
1:35 PM 60.8 °F 53.6 °F 77% 29.71 in 10.0 mi WNW 8.1 mph - N/A   Scattered Clouds
1:36 PM 60.8 °F 53.6 °F 77% 29.71 in 10.0 mi WNW 8.1 mph - N/A   Scattered Clouds
1:55 PM 60.8 °F 53.6 °F 77% 29.71 in 10.0 mi NW 9.2 mph - N/A   Scattered Clouds
2:17 PM 60.8 °F 53.6 °F 77% 29.71 in 10.0 mi WNW 11.5 mph 17.3 mph N/A   Mostly Cloudy
2:36 PM 60.8 °F 53.6 °F 77% 29.71 in 10.0 mi NNW 9.2 mph 16.1 mph N/A   Mostly Cloudy
2:55 PM 60.8 °F 53.6 °F 77% 29.72 in 10.0 mi NW 10.4 mph - N/A   Mostly Cloudy
2:56 PM 60.8 °F 53.6 °F 77% 29.72 in 10.0 mi NW 10.4 mph - N/A   Mostly Cloudy
3:15 PM 60.8 °F 53.6 °F 77% 29.72 in 10.0 mi NNW 10.4 mph 17.3 mph N/A   Scattered Clouds
3:16 PM 60.8 °F 53.6 °F 77% 29.72 in 10.0 mi NW 10.4 mph 17.3 mph N/A   Scattered Clouds
3:39 PM 60.8 °F 53.6 °F 77% 29.74 in 10.0 mi WNW 6.9 mph - N/A   Mostly Cloudy
3:56 PM 60.8 °F 53.6 °F 77% 29.74 in 10.0 mi NW 8.1 mph - N/A   Mostly Cloudy
4:15 PM 62.6 °F 53.6 °F 72% 29.74 in 10.0 mi NNW 9.2 mph - N/A   Scattered Clouds
4:35 PM 60.8 °F 51.8 °F 72% 29.75 in 10.0 mi WNW 8.1 mph - N/A   Scattered Clouds
4:36 PM 60.8 °F 51.8 °F 72% 29.75 in 10.0 mi WNW 6.9 mph - N/A   Scattered Clouds
4:55 PM 60.8 °F 50.0 °F 68% 29.76 in 10.0 mi NW 9.2 mph - N/A   Scattered Clouds
5:17 PM 60.8 °F 51.8 °F 72% 29.77 in 10.0 mi NNW 6.9 mph - N/A   Clear
5:36 PM 60.8 °F 51.8 °F 72% 29.78 in 10.0 mi NW 5.8 mph - N/A   Clear
5:55 PM 60.8 °F 51.8 °F 72% 29.79 in 10.0 mi NW 8.1 mph 17.3 mph N/A   Clear
6:15 PM 59.0 °F 51.8 °F 77% 29.79 in 10.0 mi NW 4.6 mph - N/A   Clear
6:38 PM 59.0 °F 51.8 °F 77% 29.81 in 10.0 mi WNW 3.5 mph - N/A   Clear
6:57 PM 57.2 °F 51.8 °F 82% 29.82 in 10.0 mi NW 4.6 mph - N/A   Clear
7:16 PM 57.2 °F 50.0 °F 77% 29.83 in 10.0 mi NW 5.8 mph - N/A   Clear
7:35 PM 55.4 °F 50.0 °F 82% 29.84 in 10.0 mi NNW 4.6 mph - N/A   Clear
7:55 PM 55.4 °F 50.0 °F 82% 29.86 in 10.0 mi NNW 4.6 mph - N/A   Mostly Cloudy
7:59 PM 55.4 °F 50.0 °F 82% 29.86 in 10.0 mi NW 4.6 mph - N/A   Mostly Cloudy
8:16 PM 55.4 °F 50.0 °F 82% 29.87 in 10.0 mi NW 6.9 mph - N/A   Overcast
8:36 PM 55.4 °F 50.0 °F 82% 29.87 in 10.0 mi NW 5.8 mph - N/A   Scattered Clouds
8:55 PM 53.6 °F 50.0 °F 88% 29.87 in 10.0 mi NW 5.8 mph - N/A   Clear
9:15 PM 53.6 °F 50.0 °F 88% 29.88 in 10.0 mi NNW 5.8 mph - N/A   Clear
9:20 PM 53.6 °F 50.0 °F 88% 29.88 in 10.0 mi NNW 6.9 mph - N/A   Clear
9:37 PM 53.6 °F 50.0 °F 88% 29.88 in 10.0 mi NNW 5.8 mph - N/A   Scattered Clouds
9:56 PM 53.6 °F 50.0 °F 88% 29.89 in 10.0 mi North 5.8 mph - N/A   Mostly Cloudy
10:15 PM 53.6 °F 50.0 °F 88% 29.89 in 10.0 mi North 5.8 mph - N/A   Scattered Clouds
10:16 PM 53.6 °F 50.0 °F 88% 29.90 in 10.0 mi North 4.6 mph - N/A   Scattered Clouds
10:35 PM 51.8 °F 48.2 °F 88% 29.90 in 10.0 mi NNW 5.8 mph - N/A   Scattered Clouds
10:39 PM 51.8 °F 48.2 °F 88% 29.90 in 10.0 mi North 5.8 mph - N/A   Scattered Clouds
10:58 PM 51.8 °F 48.2 °F 88% 29.91 in 10.0 mi North 5.8 mph - N/A   Clear
11:16 PM 51.8 °F 48.2 °F 88% 29.92 in 10.0 mi North 4.6 mph - N/A   Clear
11:35 PM 51.8 °F 48.2 °F 88% 29.93 in 10.0 mi North 6.9 mph - N/A   Clear
11:36 PM 51.8 °F 48.2 °F 88% 29.93 in 10.0 mi North 5.8 mph - N/A   Clear
11:55 PM 51.8 °F 48.2 °F 88% 29.96 in 10.0 mi North 8.1 mph - N/A   Clear